Back to catalog

STARLINK-31829

AliveCommunicationsVLEO
NORAD 59770·PAYLOAD·🇺🇸 United States

Launched May 14, 2024 from Vandenberg Space Force Base

Loading…

Next Passes (next 24 hours)

TLE

FreshSource: CelesTrak SupGP

Epoch: Sep 14, 2026, 22:45 UTC

1 59770C 24091T   26257.94840278  .00016204  00000+0  47866-3 0  2571
2 59770  53.1592 227.3328 0001609  88.6774  44.8881 15.34388773    11

Track STARLINK-31829 in real time with AllMySat

Download on the App Store